Temp
3 3 3 3 5 6 7 8 9 10 10 10 10 10 10 11 11 12 12 13 14 14
3 3 2 2 3 5 6 7 9 9 9 10 10 10 10 10 11 11 12 12 13 14
3 2 2 2 2 4 5 7 8 9 9 9 10 10 10 10 11 11 11 12 12 13
2 2 1 2 2 4 5 7 8 9 9 9 10 10 10 10 10 11 11 12 12 13
2 2 2 2 3 4 6 7 9 9 9 10 10 10 9 10 10 11 11 12 13 13
1 1 2 3 4 5 6 8 9 9 9 9 10 10 10 9 10 10 11 12 12 13
1 1 2 3 4 6 6 6 7 8 9 9 9 9 8 8 9 10 10 12 13 13
2 1 2 2 3 4 5 5 5 6 6 7 7 7 7 9 9 9 10 11 12 13
2 2 2 2 2 2 3 3 4 4 3 4 4 3 4 5 6 9 11 11 12 12
1 1 1 1 1 1 1 1 2 1 2 3 3 3 3 5 8 9 9 10 10 11
1 1 1 1 1 1 0 0 0 0 1 1 2 2 3 5 8 8 8 8 9 9
1 0 1 1 1 1 0 0 -0 -1 -1 -0 1 2 2 4 6 6 6 7 7 7
0 0 -0 -0 0 0 0 -0 -0 -1 -1 -1 0 1 2 3 5 4 3 3 3 3
1 -0 -0 -1 -1 -0 -0 -0 -1 -1 -1 -1 -0 0 2 2 2 2 1 1 1 1
Height
754 750 746 743 739 735 732 729 726 726 725 726 726 726 727 725 725 726 726 727 729 730
750 746 742 736 733 729 725 722 721 721 720 720 720 720 719 718 718 718 719 719 721 722
747 741 736 731 726 723 720 717 715 715 715 714 713 712 712 710 710 711 711 712 713 715
742 735 730 726 723 720 716 712 711 709 708 707 707 707 706 705 704 703 703 704 705 707
739 732 728 723 719 715 711 708 705 704 702 701 699 698 698 697 696 696 696 697 699 699
736 731 726 721 716 712 708 705 701 699 697 696 694 693 693 692 690 689 689 691 692 693
735 730 725 720 715 710 706 702 698 695 692 691 689 690 689 687 684 682 682 684 685 686
734 730 723 719 715 710 706 702 698 693 691 689 687 686 683 679 679 679 678 679 681 682
734 729 724 719 715 710 707 702 698 694 691 690 688 686 682 679 677 675 675 676 676 677
734 729 725 720 715 711 708 704 700 698 694 689 686 683 679 676 674 672 672 672 673 674
733 729 725 721 717 712 709 706 703 700 695 690 685 682 678 674 671 670 670 671 670 670
733 729 725 720 717 714 711 709 705 702 697 691 687 680 675 669 666 665 666 667 668 669
732 729 726 722 718 715 712 710 706 703 698 694 688 682 676 668 665 665 665 667 668 668
731 728 725 722 719 716 713 710 706 703 700 695 692 686 680 674 670 668 668 670 671 671
Wind_Speed
26 21 23 24 24 23 22 26 26 27 27 28 29 30 30 31 33 33 34 34 33 31
25 25 25 25 24 23 23 24 23 24 26 27 28 28 28 29 31 31 32 33 33 34
24 24 24 24 24 23 23 20 20 22 24 26 27 27 25 26 27 29 31 32 32 32
26 26 26 25 24 23 22 18 19 22 24 24 25 25 26 26 25 26 29 31 30 32
24 24 24 23 24 21 20 19 19 21 23 25 25 25 25 25 22 24 26 29 31 32
22 22 23 24 24 22 19 20 20 20 21 23 24 24 25 23 21 24 27 28 29 30
20 21 22 22 21 14 13 15 15 14 14 16 17 15 12 16 18 19 24 29 28 28
20 20 19 18 18 16 13 13 11 8 7 5 5 10 14 16 14 13 14 18 24 25
19 18 18 17 15 14 13 12 13 10 7 8 7 17 15 13 16 14 13 15 17 20
20 20 18 16 14 13 13 13 12 14 13 11 11 16 17 16 15 16 15 14 15 17
17 18 18 16 16 15 13 13 13 13 14 14 15 19 21 19 16 14 13 9 10 11
16 16 16 16 15 14 14 15 15 14 14 15 16 20 20 18 15 7 5 4 4 6
13 14 15 13 13 12 12 11 11 13 15 15 19 23 19 9 3 14 19 17 18 17
11 11 12 11 10 11 11 10 11 12 14 15 16 24 20 15 13 14 17 16 18 16
Wind_Direction
317 314 308 305 301 298 287 276 285 285 279 275 271 269 268 265 258 249 245 246 249 245
316 315 311 308 299 292 292 278 277 281 276 274 273 272 271 266 263 255 248 243 244 244
315 316 312 311 301 296 300 290 281 282 275 271 271 274 269 265 261 252 248 245 244 244
326 325 321 315 310 304 303 298 285 282 280 276 275 274 269 265 264 258 249 248 244 246
321 330 323 320 321 316 307 307 299 295 289 286 283 280 271 264 262 260 251 253 255 247
329 333 331 327 333 321 320 312 303 299 288 282 280 274 274 264 268 267 256 257 258 254
336 337 341 341 337 341 332 324 328 315 293 285 279 275 274 284 301 287 259 259 255 253
349 343 352 352 347 346 342 339 343 341 337 336 299 297 301 306 303 293 277 265 261 259
344 350 355 357 355 348 348 344 345 353 357 1 350 348 333 320 301 296 293 286 279 271
342 344 352 1 3 4 360 355 1 356 0 358 344 342 337 324 306 301 295 282 278 275
338 340 340 350 1 3 359 2 3 7 6 357 351 344 337 322 305 285 280 279 278 275
331 331 333 340 344 341 353 358 360 7 7 9 5 3 339 320 284 251 214 242 256 241
328 328 327 329 335 338 339 347 352 358 360 2 7 8 1 352 123 133 112 105 89 71
318 323 326 323 328 332 331 341 2 14 18 15 14 12 16 26 76 97 99 82 78 75